Date String (YYYY-MM-DD hh:mm:ss) UTC,Instrument flags,absolute air pressure of the measurement (hPa),sample flow rate (lpm),inlet stack bypass flow (lpm),air temperature of the measurement (°C),ambient temperature measured by the external sensor (°C),aerosol sample conditioner tube jacket temperature (°C),OPC LED temperature (°C),internal box temperature (°C),relative humidity of the measurement (%),span deviation,mass concentration of particles derived from Lorenz-Mie calculation of OPC scattering (μg/m³),mass concentration of particles derived from Lorenz-Mie calculation of OPC scattering (μg/m³),mass concentration of particles derived from Lorenz-Mie calculation of OPC scattering (μg/m³)
DateTimeUTC,F1_M11,P_M11,Q1_M11,Q2_M11,T1_M11,T2_M11,T3_M11,T4_M11,T5_M11,U1_M11,ZSPAN_M11,X2_M11,X0_M11,X1_M11
2023-08-20 14:00:00,SystemResetWarning,0837.7,5.00,000.00,031.9,027.1,000.0,039.4,031.1,34.3,0002.3,0011.22,0016.51,0010.23
2023-08-20 14:01:00,SystemResetWarning,0837.7,5.00,000.00,031.9,027.3,000.0,039.5,031.2,34.2,0002.0,0011.21,0016.48,0010.26
2023-08-20 14:02:00,SystemResetWarning,0837.7,5.00,000.00,031.9,027.5,000.0,039.5,031.2,34.2,0002.0,0011.27,0016.51,0010.32
2023-08-20 14:03:00,SystemResetWarning,0837.7,4.99,000.00,031.8,027.5,000.0,039.6,031.3,34.3,0001.7,0011.31,0016.55,0010.37
2023-08-20 14:04:00,SystemResetWarning,0837.7,4.99,000.00,031.8,026.5,000.0,039.5,031.2,34.3,0001.8,0011.37,0016.72,0010.42
2023-08-20 14:05:00,SystemResetWarning,0837.7,5.00,000.00,031.8,025.1,000.0,039.4,030.9,34.4,0001.5,0011.50,0017.08,0010.48
2023-08-20 14:06:00,SystemResetWarning,0837.6,5.00,000.00,031.7,024.7,000.0,039.3,030.7,34.5,0001.9,0011.56,0017.30,0010.55
2023-08-20 14:07:00,SystemResetWarning,0837.6,4.99,000.00,031.5,024.9,000.0,039.3,030.6,35.1,0002.1,0011.62,0016.77,0010.59
2023-08-20 14:08:00,SystemResetWarning,0837.6,5.03,000.00,031.4,025.3,000.0,039.3,030.6,35.1,0002.2,0011.68,0017.30,0010.64
2023-08-20 14:09:00,SystemResetWarning,0837.6,4.98,000.00,031.6,025.7,000.0,039.3,030.8,35.1,0002.5,0011.74,0018.26,0010.68
2023-08-20 14:10:00,SystemResetWarning,0837.6,5.02,000.00,031.8,026.0,000.0,039.3,031.0,34.6,0002.8,0011.78,0018.74,0010.73
2023-08-20 14:11:00,SystemResetWarning,0837.6,4.98,000.00,032.0,026.4,000.0,039.4,031.2,33.9,0002.4,0011.80,0018.82,0010.74
2023-08-20 14:12:00,SystemResetWarning,0837.7,5.00,000.00,032.1,026.6,000.0,039.4,031.2,33.7,0002.2,0011.87,0018.95,0010.78
2023-08-20 14:13:00,SystemResetWarning,0837.7,5.01,000.00,032.2,026.9,000.0,039.5,031.2,33.9,0002.1,0011.91,0019.07,0010.84
2023-08-20 14:14:00,SystemResetWarning,0837.7,5.00,000.00,032.2,027.1,000.0,039.5,031.2,34.0,0002.2,0012.01,0019.24,0010.92
2023-08-20 14:15:00,SystemResetWarning,0837.7,4.99,000.00,032.1,027.3,000.0,039.6,031.3,33.9,0002.1,0012.10,0019.30,0011.00
2023-08-20 14:16:00,SystemResetWarning,0837.7,4.99,000.00,032.1,027.4,000.0,039.7,031.3,34.2,0001.9,0012.20,0019.33,0011.08
2023-08-20 14:17:00,SystemResetWarning,0837.7,4.99,000.00,032.1,027.4,000.0,039.7,031.3,34.1,0001.7,0012.29,0019.03,0011.13
2023-08-20 14:18:00,SystemResetWarning,0837.7,5.00,000.00,032.1,026.2,000.0,039.6,031.1,33.9,0001.9,0012.37,0019.11,0011.22
2023-08-20 14:19:00,SystemResetWarning,0837.7,5.01,000.00,032.0,025.0,000.0,039.5,030.9,34.2,0002.2,0012.39,0019.33,0011.27
2023-08-20 14:20:00,SystemResetWarning,0837.6,5.00,000.00,031.9,024.7,000.0,039.4,030.8,34.4,0002.1,0012.45,0018.37,0011.33
2023-08-20 14:21:00,SystemResetWarning,0837.6,4.99,000.00,031.7,024.9,000.0,039.5,030.6,35.0,0001.8,0012.54,0018.45,0011.40
2023-08-20 14:22:00,SystemResetWarning,0837.6,5.01,000.00,031.6,025.3,000.0,039.5,030.6,35.3,0001.8,0012.58,0018.51,0011.45
2023-08-20 14:23:00,SystemResetWarning,0837.7,5.01,000.00,031.7,025.7,000.0,039.5,030.8,34.9,0002.1,0012.63,0018.60,0011.49
2023-08-20 14:24:00,SystemResetWarning,0837.7,4.98,000.00,031.8,026.1,000.0,039.5,031.0,34.8,0002.3,0012.66,0018.65,0011.50
2023-08-20 14:25:00,SystemResetWarning,0837.6,5.02,000.00,031.8,026.4,000.0,039.5,031.0,34.5,0002.4,0012.62,0019.31,0011.48
2023-08-20 14:26:00,SystemResetWarning,0837.6,4.98,000.00,031.8,026.7,000.0,039.5,031.1,34.9,0002.4,0012.63,0019.46,0011.48
2023-08-20 14:27:00,SystemResetWarning,0837.6,5.03,000.00,031.8,026.9,000.0,039.6,031.1,34.9,0002.3,0012.62,0019.54,0011.51
2023-08-20 14:28:00,SystemResetWarning,0837.6,4.97,000.00,031.9,027.1,000.0,039.6,031.2,34.2,0002.1,0012.69,0019.75,0011.56
2023-08-20 14:29:00,SystemResetWarning,0837.7,5.01,000.00,032.0,027.3,000.0,039.6,031.3,34.4,0001.9,0012.72,0020.74,0011.58
2023-08-20 14:30:00,SystemResetWarning,0837.6,5.02,000.00,032.0,027.1,000.0,039.6,031.3,34.4,0001.8,0012.82,0020.72,0011.64
2023-08-20 14:31:00,SystemResetWarning,0837.6,4.99,000.00,032.0,025.8,000.0,039.5,031.1,33.9,0001.6,0012.88,0021.15,0011.67
2023-08-20 14:32:00,SystemResetWarning,0837.6,4.99,000.00,032.0,024.8,000.0,039.4,030.9,34.3,0002.0,0012.89,0020.87,0011.70
2023-08-20 14:33:00,SystemResetWarning,0837.6,5.01,000.00,031.9,024.7,000.0,039.4,030.8,34.8,0002.1,0012.96,0020.87,0011.77
2023-08-20 14:34:00,SystemResetWarning,0837.6,5.00,000.00,031.7,025.0,000.0,039.4,030.7,35.3,0002.2,0013.01,0020.89,0011.81
2023-08-20 14:35:00,SystemResetWarning,0837.6,5.02,000.00,031.7,025.4,000.0,039.4,030.8,35.4,0002.0,0013.06,0020.89,0011.88
2023-08-20 14:36:00,SystemResetWarning,0837.6,5.00,000.00,031.9,025.8,000.0,039.4,031.0,35.0,0001.8,0013.21,0020.66,0011.96
2023-08-20 14:37:00,SystemResetWarning,0837.6,4.99,000.00,032.1,026.1,000.0,039.5,031.1,34.2,0001.9,0013.33,0020.71,0012.01
2023-08-20 14:38:00,SystemResetWarning,0837.6,4.99,000.00,032.2,026.5,000.0,039.5,031.2,34.2,0002.2,0013.34,0020.42,0012.02
2023-08-20 14:39:00,SystemResetWarning,0837.6,5.01,000.00,032.3,026.8,000.0,039.6,031.2,34.0,0002.3,0013.26,0020.16,0012.00
2023-08-20 14:40:00,SystemResetWarning,0837.6,5.02,000.00,032.3,027.0,000.0,039.6,031.2,34.0,0002.3,0013.23,0019.26,0011.99
2023-08-20 14:41:00,SystemResetWarning,0837.7,5.00,000.00,032.3,027.2,000.0,039.7,031.3,34.2,0002.3,0013.18,0019.14,0011.98
2023-08-20 14:42:00,SystemResetWarning,0837.6,4.99,000.00,032.2,027.3,000.0,039.8,031.3,34.0,0002.2,0013.17,0018.91,0011.99
2023-08-20 14:43:00,SystemResetWarning,0837.6,4.99,000.00,032.2,027.0,000.0,039.8,031.3,33.9,0002.0,0013.16,0018.47,0011.97
2023-08-20 14:44:00,SystemResetWarning,0837.6,5.00,000.00,032.2,025.6,000.0,039.7,031.0,34.0,0002.0,0013.12,0018.40,0011.94
2023-08-20 14:45:00,SystemResetWarning,0837.6,5.01,000.00,032.1,024.8,000.0,039.6,030.8,34.2,0001.9,0013.03,0018.40,0011.92
2023-08-20 14:46:00,SystemResetWarning,0837.6,5.00,000.00,032.0,024.9,000.0,039.5,030.7,34.4,0002.1,0013.04,0018.44,0011.91
2023-08-20 14:47:00,SystemResetWarning,0837.6,4.99,000.00,031.7,025.2,000.0,039.6,030.6,34.9,0002.2,0013.02,0018.74,0011.92
2023-08-20 14:48:00,SystemResetWarning,0837.6,5.00,000.00,031.6,025.6,000.0,039.6,030.7,35.2,0002.0,0012.97,0019.00,0011.94
2023-08-20 14:49:00,SystemResetWarning,0837.6,5.02,000.00,031.7,025.9,000.0,039.6,030.9,35.3,0001.8,0013.03,0019.33,0011.98
2023-08-20 14:50:00,SystemResetWarning,0837.6,5.01,000.00,031.9,026.3,000.0,039.6,031.1,35.0,0001.9,0013.08,0019.42,0012.03
2023-08-20 14:51:00,SystemResetWarning,0837.6,4.98,000.00,032.1,026.6,000.0,039.6,031.2,34.4,0001.9,0013.14,0019.46,0012.08
2023-08-20 14:52:00,SystemResetWarning,0837.6,5.00,000.00,032.2,026.8,000.0,039.6,031.2,34.1,0001.6,0013.22,0019.43,0012.14
2023-08-20 14:53:00,SystemResetWarning,0837.7,5.01,000.00,032.2,027.0,000.0,039.7,031.3,34.0,0001.8,0013.27,0020.32,0012.17
2023-08-20 14:54:00,SystemResetWarning,0837.7,5.01,000.00,032.2,027.2,000.0,039.7,031.3,34.0,0002.0,0013.32,0020.72,0012.21
2023-08-20 14:55:00,SystemResetWarning,0837.6,5.00,000.00,032.2,026.6,000.0,039.6,031.2,33.9,0002.1,0013.42,0020.91,0012.28
2023-08-20 14:56:00,SystemResetWarning,0837.6,5.00,000.00,032.2,025.2,000.0,039.5,030.9,33.9,0002.1,0013.53,0021.44,0012.32
2023-08-20 14:57:00,SystemResetWarning,0837.6,5.00,000.00,032.1,024.7,000.0,039.5,030.8,34.1,0001.9,0013.54,0021.87,0012.36
2023-08-20 14:58:00,SystemResetWarning,0837.6,5.01,000.00,031.9,024.8,000.0,039.5,030.6,34.5,0002.0,0013.59,0021.63,0012.36
2023-08-20 14:59:00,SystemResetWarning,0837.6,4.99,000.00,031.7,025.2,000.0,039.5,030.6,35.1,0002.1,0013.59,0020.78,0012.36
